Location: Caltech
(34.1382°N, 118.1253°W)
Time: 22:00:16
(UTC-08:00)

Uosat F - Visible Passes

Search period start: 27 February 2017 00:00
Search period end: 09 March 2017 00:00
Orbit: 751 x 760 km, 98.8° (Epoch: 27 February)

Date Brightness Start Highest point End Pass type
(mag) Time Alt. Az. Time Alt. Az. Time Alt. Az.
27 Feb 14.3 18:58:51 10° SW 19:01:44 15° W 19:04:37 10° WNW visible
28 Feb 14.1 05:30:06 10° NE 05:33:49 20° E 05:37:31 10° SE visible
28 Feb 12.8 18:17:20 10° SSW 18:22:01 39° W 18:26:45 10° NNW visible
02 Mar 13.2 05:49:15 10° NE 05:53:46 32° E 05:58:15 10° SSE visible
02 Mar 13.7 18:37:52 10° SSW 18:41:57 25° W 18:46:04 10° NW visible
03 Mar 14.6 05:11:59 10° ENE 05:14:01 12° E 05:16:03 10° ESE visible
04 Mar 14.3 18:59:00 10° SW 19:01:56 15° W 19:04:54 10° WNW visible
05 Mar 14.1 05:30:21 10° NE 05:34:02 20° E 05:37:41 10° SE visible
05 Mar 12.7 18:17:32 10° SSW 18:22:14 40° W 18:26:58 10° NNW visible
07 Mar 13.7 18:38:03 10° SSW 18:42:10 25° W 18:46:18 10° NW visible
08 Mar 14.6 05:12:17 10° ENE 05:14:14 12° E 05:16:10 10° ESE visible
